Regional Weather Roundup
Issued by NWS

Home | Current Version | Previous Version | Graphics & Text | Print | Product List | Glossary On
Versions: 1 2 3 4 5 6 7 8 9 10 11 12 13 14 15 16 17 18 19 20 21 22 23 24 25 26 27 28 29 30 31 32 33 34 35 36 37 38 39 40 41 42 43 44 45 46 47 48 49 50
631
ASUS44 KJAN 282210
RWRMS

MISSISSIPPI HOURLY WEATHER ROUNDUP
NATIONAL WEATHER SERVICE JACKSON MS
500 PM CDT MON JUL 28 2014

NOTE: "FAIR: INDICATES FEW OR NO CLOUDS BELOW 12,000 FEET WITH NO
SIGNIFICANT WEATHER AND/OR OBSTRUCTIONS TO VISIBILITY.

MSZ001>002-007>008-010>013-018>021-025>028-034>036-282300-
NORTHWEST MISSISSIPPI

CITY           SKY/WX    TMP DP  RH WIND       PRES   REMARKS
CLARKSDALE     FAIR      84  64  51 NW7       30.05S
CLEVELAND      FAIR      85  69  60 N13       30.02F
GREENWOOD      SUNNY     86  66  51 NW7       30.01F
GREENVILLE     SUNNY     88  64  44 NW12      30.02F
GRENADA        FAIR      84  63  48 NW13      30.02S
OLIVE BRANCH   PTSUNNY   81  64  57 N12G20    30.04S
OXFORD         FAIR      82  63  51 N7        30.04F
TUNICA         CLEAR     84  61  45 N10       30.04F
$$

MSZ003>006-009-014>017-022>024-029>033-037>039-282300-
NORTHEAST MISSISSIPPI

CITY           SKY/WX    TMP DP  RH WIND       PRES   REMARKS
BELMONT        FAIR      82  64  54 N9        30.01S
COLUMBUS AFB   SUNNY     86  64  48 N13G18    29.98F
CORINTH        FAIR      82  63  51 N10       30.01F
GOLDN TRIANGLE MOSUNNY   90  64  43 N12       29.99S HX  91
STARKVILLE     FAIR      86  63  45 NW9       29.99S
TUPELO         MOSUNNY   84  61  45 N12       30.00F
$$

MSZ040-058-282300-
CENTRAL MISSISSIPPI

CITY           SKY/WX    TMP DP  RH WIND       PRES   REMARKS
JACKSON INTL   MOSUNNY   91  68  46 W7        30.00F HX  95
JACKSON HAWKNS PTSUNNY   89  68  49 NW6       30.01F HX  93
MERIDIAN KEY   MOSUNNY   93  68  43 W12       29.96S HX  97
MERIDIAN NAS   MOSUNNY   93  60  33 NW15      29.96S HX  93
RAYMOND        FAIR      90  84  84 NW7       30.01F HX 115
VICKSBURG      SUNNY     90  71  53 NW6       30.01F HX  96
$$

MSZ059>079-282300-
SOUTH MISSISSIPPI

CITY           SKY/WX    TMP DP  RH WIND       PRES   REMARKS
BROOKHAVEN     FAIR      90  75  62 W8        30.03F HX 100
COLUMBIA       FAIR      91  77  62 W8        29.98F HX 105
HATTIESBURG    MOSUNNY   94  75  54 W14       29.97F HX 105
MCCOMB         MOSUNNY   90  75  61 NW10      30.01F HX 100
NATCHEZ        PTSUNNY   88  79  74 S5        30.01F HX 102
PINE BELT      MOSUNNY   91  73  55 W9        30.00S HX 100
$$

MSZ080>082-282300-
COASTAL MISSISSIPPI

CITY           SKY/WX    TMP DP  RH WIND       PRES   REMARKS
BAY ST LOUIS   MOSUNNY  N/A N/A N/A W5        29.99F
BILOXI         MOSUNNY   92  77  62 VRB3      29.97S HX 105
PASCAGOULA     PTSUNNY   90  78  68 W3        29.96F HX 104
GULFPORT       PTSUNNY   94  74  52 W7        29.96F HX 104
$$



USA.gov is the U.S. government's official web portal to all federal, state and local government web resources and services.